Regional Weather Roundup
Issued by NWS

Home | Current Version | Previous Version | Text Only | Print | Product List | Glossary Off
Versions: 1 2 3 4 5 6 7 8 9 10 11 12 13 14 15 16 17 18 19 20 21 22 23 24 25 26 27 28 29 30 31 32 33 34 35 36 37 38 39 40 41 42 43 44 45 46 47 48 49 50

000
ASUS45 KCYS 240010
RWRWY

WYOMING REGIONAL WEATHER ROUNDUP
NATIONAL WEATHER SERVICE CHEYENNE WY
600 PM MDT SAT MAY 23 2015

NOTE:  "FAIR" INDICATES FEW OR NO CLOUDS BELOW 12,000 FEET
WITH NO SIGNIFICANT WEATHER AND/OR OBSTRUCTIONS TO VISIBILITY.

WYZ001-240100-
YELLOWSTONE NATIONAL PARK

CITY           SKY/WX    TMP DP  RH WIND       PRES   REMARKS
LK YELLOWSTONE   N/A     46  37  71 CALM      30.07S
6HR MIN TEMP:  42; 6HR MAX TEMP:  50; 6HR PCP:  0.04;

W YELLOWSTONE  NOT AVBL

$$
WYZ002>013-054>058-071-098>099-240100-
NORTHERN WYOMING

CITY           SKY/WX    TMP DP  RH WIND       PRES   REMARKS
JACKSON        PTSUNNY   54  41  62 CALM      29.99F
CODY           CLOUDY    48  45  87 W6        30.02R
GREYBULL       FAIR      65  43  44 W6        29.92S
6HR MIN TEMP:  56; 6HR MAX TEMP:  65; 6HR PCP:  0.02;

WORLAND        FAIR      59  48  67 NW12      29.94S
6HR MIN TEMP:  57; 6HR MAX TEMP:  62; 6HR PCP: TRACE;

SHERIDAN       CLOUDY    52  47  83 NE10      30.02S
6HR MIN TEMP:  52; 6HR MAX TEMP:  57; 6HR PCP: TRACE;

BUFFALO        CLOUDY    51  48  89 N12       30.03R
6HR MIN TEMP:  49; 6HR MAX TEMP:  53; 6HR PCP:  0.23;

GILLETTE       FAIR      57  47  69 NE16      29.97F
6HR MIN TEMP:  52; 6HR MAX TEMP:  61;

HULETT         CLOUDY    55  46  71 NE13G21   30.02S
NEWCASTLE      MOCLDY    61  43  51 SE7       29.97F

$$
WYZ014>020-022>026-101>103-240100-
CENTRAL WYOMING

CITY           SKY/WX    TMP DP  RH WIND       PRES   REMARKS
BIG PINEY      CLOUDY    45  39  79 CALM      30.00S
6HR MIN TEMP:  43; 6HR MAX TEMP:  58; 6HR PCP:  0.11;

PINEDALE       FAIR      45  37  76 SW9       30.01S
DUBOIS         FAIR      52  34  50 CALM      29.99S
LANDER         PTSUNNY   51  40  65 N10       29.96R
6HR MIN TEMP:  51; 6HR MAX TEMP:  62; 6HR PCP: TRACE;

RIVERTON         N/A    N/A N/A N/A MISG      30.00R
CASPER         FAIR      58  41  53 W8        29.95R
6HR MIN TEMP:  53; 6HR MAX TEMP:  64;

DOUGLAS        CLOUDY    56  49  77 E22G31    29.94R
6HR MIN TEMP:  56; 6HR MAX TEMP:  65;


$$
WYZ021-027>030-104>119-240100-
SOUTHERN WYOMING

CITY           SKY/WX    TMP DP  RH WIND       PRES   REMARKS
EVANSTON       FAIR      46  38  73 NW9       29.97R
6HR MIN TEMP:  38; 6HR MAX TEMP:  53; 6HR PCP:  0.11;

KEMMERER       FAIR      46  37  71 NW7       29.98S
FORT BRIDGER   MOCLDY    57  41  54 NW13G18   29.98S
ROCK SPRINGS   FAIR      52  35  52 N8        29.94S
6HR MIN TEMP:  49; 6HR MAX TEMP:  57; 6HR PCP: TRACE;

DIXON          FAIR      49  38  65 E16       30.00R
RAWLINS        CLOUDY    45  40  82 CALM      30.00F
6HR MIN TEMP:  43; 6HR MAX TEMP:  51; 6HR PCP:  0.13;

SARATOGA       DRIZZLE   45  39  81 W8        30.02S
LARAMIE        FAIR      51  37  58 SE17      29.95R
6HR MIN TEMP:  49; 6HR MAX TEMP:  57;

CHEYENNE       CLOUDY    47  44  90 E14       29.92F
6HR MIN TEMP:  47; 6HR MAX TEMP:  57; 6HR PCP:  0.10;

TORRINGTON     LGT RAIN  54  52  93 SE14      29.93R
6HR MIN TEMP:  54; 6HR MAX TEMP:  63; 6HR PCP:  0.02;

PINE BLUFFS    CLOUDY    52  50  93 CALM      29.95S

$$



USA.gov is the U.S. government's official web portal to all federal, state and local government web resources and services.